Location: Fort Worth, Tx
(32.7431°N, 97.3695°W)
Time: 17:59:46
(UTC-04:00)

CUTE-I - Visible Passes

Search period start: 31 March 2023 00:00
Search period end: 10 April 2023 00:00
Orbit: 809 x 823 km, 98.7° (Epoch: 30 March)

Date Brightness Start Highest point End Pass type
(mag) Time Alt. Az. Time Alt. Az. Time Alt. Az.
01 Apr ? 07:32:09 10° ENE 07:35:05 15° E 07:38:01 10° SE visible
03 Apr ? 21:26:14 10° WSW 21:28:47 14° W 21:31:22 10° WNW visible
05 Apr ? 07:43:42 10° NE 07:47:34 20° E 07:51:26 10° SE visible
06 Apr ? 07:23:44 10° ENE 07:25:28 11° E 07:27:11 10° ESE visible
08 Apr ? 21:15:43 10° SW 21:19:09 17° W 21:22:35 10° NW visible
